#timestamp,LO_Frequency,Hit,StdDev 
1512162015.3,286047009.6,N
1512162035.1,286047010.7,N
1512162055.9,286047009.6,N
1512162075.7,286047013.3,N
1512162095.5,286047013.2,N
1512162115.4,286047009.9,N
1512162135.2,286047009.2,N
1512162155.0,286047003.1,N
1512162155.9,286047003.1,N
1512162175.7,286047002.5,N
1512162195.6,286047001.9,N
1512162215.4,286047000.9,N
1512162235.2,286047000.3,N
1512162255.1,286047000.4,N
1512162256.0,286047000.4,N
1512162275.8,286047002.8,N
1512162295.6,286047004.0,N
1512162315.5,286047003.5,N
1512162335.3,286047008.0,N
1512162355.1,286047008.2,N
1512162375.9,286047011.0,N
1512162395.7,286047015.9,N
1512162415.5,286047014.9,N
1512162435.4,286047012.8,N
1512162455.2,286047014.7,N
1512162475.0,286047015.0,N
1512162475.9,286047015.0,N
1512162495.8,286047020.3,Y
1512162515.6,286047012.3,P
1512162535.4,286047012.1,P
1512162555.3,286047013.7,P
1512162575.1,286047015.8,Y
1512162576.0,286047015.8,P
1512162595.8,286047003.9,N
1512162615.7,286047002.2,N
1512162635.5,286047001.5,N
1512162655.3,286047003.6,N
1512162675.1,286047005.5,N
1512162695.9,286047005.0,N
1512162715.7,286047001.5,N
1512162735.5,286047001.9,N
1512162755.4,286047004.0,N
1512162775.2,286047003.0,N
1512162795.0,286047000.1,N
1512162795.9,286047000.1,N
1512162815.8,286046998.1,N
1512162835.6,286046999.0,N
1512162855.4,286046999.1,N
1512162875.3,286046995.2,N
1512162895.1,286046997.2,N
1512162896.0,286046997.2,N
1512162915.8,286046996.0,N
1512162935.7,286046994.0,N
1512162955.5,286046994.2,N
1512162975.3,286046992.8,N
1512162995.2,286046990.8,N
1512163015.9,286046994.7,N
1512163035.7,286046993.4,N
1512163055.5,286046996.2,N
1512163075.4,286046997.1,N
1512163095.2,286046998.0,N
1512163115.0,286046995.8,N
1512163115.9,286046995.8,N
1512163135.8,286046993.9,N
1512163155.6,286046990.5,N
1512163175.4,286046989.7,N
1512163195.3,286046989.7,N
1512163215.1,286046990.6,N
1512163216.0,286046990.6,N
1512163235.8,286046991.2,N
1512163255.7,286046994.3,N
1512163275.5,286046996.7,N
1512163295.3,286047000.5,N
1512163315.2,286047000.5,N
1512163335.9,286047004.7,N
1512163355.7,286047012.1,Y
1512163375.6,286047018.7,P
1512163395.4,286047014.6,N
1512163415.2,286047009.4,N
1512163435.1,286047011.6,N
1512163436.0,286047011.6,N
1512163455.8,286047010.7,N
1512163475.6,286047005.2,N
1512163495.5,286047005.8,N
1512163515.3,286047001.7,N
1512163535.1,286047001.8,N
1512163555.8,286047003.1,N
1512163575.7,286047002.4,N
1512163595.5,286046999.3,N
1512163615.3,286046998.2,N
1512163635.2,286046997.0,N
1512163655.9,286047001.1,N
1512163675.7,286046998.2,N
1512163695.6,286046994.9,N
1512163715.4,286046995.5,N
1512163735.2,286046992.4,N
1512163755.1,286046992.3,N
1512163756.0,286046992.3,N
1512163775.8,286046992.7,N
1512163795.6,286046991.3,N
1512163815.4,286046988.6,N
1512163835.3,286046985.3,N
1512163855.1,286046988.3,N
1512163875.8,286046986.5,N
1512163895.7,286046984.2,N
1512163915.5,286046983.9,N
1512163935.3,286046980.7,N
1512163955.2,286046985.2,N
1512163975.9,286046986.6,N
1512163995.7,286046988.3,N
1512164015.6,286046991.4,N
1512164035.4,286047001.1,N
1512164055.2,286047007.3,N
1512164075.1,286047012.5,N
1512164076.0,286047012.5,N
1512164095.8,286047015.6,N
1512164115.6,286047015.9,N
1512164135.5,286047019.4,N
1512164155.3,286047023.3,N
1512164175.1,286047024.6,N
1512164195.8,286047026.3,N
1512164215.7,286047023.2,N
1512164235.5,286047026.6,N
1512164255.3,286047024.2,N
1512164275.2,286047024.7,N
1512164295.9,286047024.5,N
1512164315.7,286047025.0,N
1512164335.6,286047023.9,N
1512164355.4,286047023.4,N
1512164375.2,286047019.1,N
1512164395.1,286047019.6,N
1512164396.0,286047019.6,N
1512164415.8,286047019.2,N
1512164435.6,286047018.6,N
1512164455.5,286047017.7,N
1512164475.3,286047021.4,N
1512164495.1,286047023.2,N
1512164515.8,286047019.4,N
1512164535.7,286047021.9,N
1512164555.5,286047028.0,Y
1512164575.3,286047009.9,P
1512164595.2,286047009.7,N
1512164615.0,286047010.1,N
1512164615.9,286047010.1,N
1512164635.8,286047011.8,Y
1512164655.6,286047000.3,P
1512164675.4,286046999.4,N
1512164695.2,286046998.9,N
1512164715.1,286046999.6,N
1512164716.0,286046999.6,N
1512164735.8,286046999.2,N
1512164755.6,286047000.7,N
1512164775.5,286047001.5,N
1512164795.3,286047004.4,N
1512164815.1,286047003.8,N
1512164835.9,286047005.9,N
1512164855.7,286047003.9,N
1512164875.5,286046999.9,N
1512164895.4,286046998.2,N
1512164915.2,286046998.1,N
1512164935.0,286047001.1,N
1512164935.9,286047001.1,N
1512164955.7,286046996.8,N
1512164975.6,286046995.0,N
1512164995.4,286046995.6,N
1512165015.2,286046993.6,N
1512165035.1,286046993.3,N
1512165036.0,286046993.3,N
1512165055.8,286046994.3,N
1512165075.6,286046995.8,N
1512165095.5,286046997.8,N
1512165115.3,286047001.1,N
1512165135.1,286046998.3,N
1512165155.9,286046999.7,N
1512165175.7,286047004.0,N
1512165195.5,286046999.7,N
1512165215.4,286047002.5,N
1512165235.2,286046999.1,N
1512165255.0,286046996.9,N
1512165255.9,286046996.9,N
1512165275.7,286046994.9,N
1512165295.6,286046992.6,N
1512165315.4,286046988.7,Y
1512165335.3,286046991.6,P
1512165355.1,286046989.5,N
1512165356.0,286046989.5,N
1512165375.8,286046988.0,Y
1512165395.7,286046994.3,P
1512165415.5,286046993.2,P
1512165435.3,286046988.6,P
1512165455.2,286046986.0,Y
1512165475.9,286046992.9,P
1512165495.7,286046992.0,P
1512165515.6,286046992.7,P
1512165535.4,286046991.3,Y
1512165555.2,286047001.0,P
1512165575.1,286046998.3,N
1512165576.0,286046998.3,N
1512165595.8,286046998.9,N
